�������C�����ː����j�^�v���󋵏��
Date,Time,Cs137(Bq/L),Cs134(Bq/L),�S��(Bq/L)
2020/02/22,00:00,0.12,ND,18
2020/02/22,00:10,0.088,ND,17
2020/02/22,00:20,0.076,ND,18
2020/02/22,00:30,0.070,ND,22
2020/02/22,00:40,0.049,ND,22
2020/02/22,00:50,ND,ND,22
2020/02/22,01:00,ND,ND,21
2020/02/22,01:10,ND,ND,21
2020/02/22,01:20,0.051,ND,18
2020/02/22,01:30,0.052,ND,17
2020/02/22,01:40,0.055,ND,20
2020/02/22,01:50,0.088,ND,20
2020/02/22,02:00,0.093,ND,21
2020/02/22,02:10,0.091,ND,21
2020/02/22,02:20,0.095,ND,22
2020/02/22,02:30,0.079,ND,23
2020/02/22,02:40,0.081,ND,21
2020/02/22,02:50,0.058,ND,20
2020/02/22,03:00,0.055,ND,20
2020/02/22,03:10,0.051,ND,21
2020/02/22,03:20,0.049,ND,20
2020/02/22,03:30,0.090,ND,19
2020/02/22,03:40,0.10,ND,18
2020/02/22,03:50,0.095,ND,17
2020/02/22,04:00,0.099,ND,17
2020/02/22,04:10,0.11,ND,17
2020/02/22,04:20,0.12,ND,18
2020/02/22,04:30,0.12,ND,16
2020/02/22,04:40,0.11,ND,20
2020/02/22,04:50,0.12,ND,20
2020/02/22,05:00,0.11,ND,23
2020/02/22,05:10,0.056,ND,24
2020/02/22,05:20,0.053,ND,22
2020/02/22,05:30,0.065,ND,24
2020/02/22,05:40,0.073,ND,20
2020/02/22,05:50,0.074,ND,22
2020/02/22,06:00,0.10,ND,20
2020/02/22,06:10,0.12,ND,19
2020/02/22,06:20,0.14,ND,25
2020/02/22,06:30,0.14,ND,25
2020/02/22,06:40,0.14,ND,25
2020/02/22,06:50,0.14,ND,24
2020/02/22,07:00,0.14,ND,24
2020/02/22,07:10,0.13,ND,25
2020/02/22,07:20,0.13,ND,22
2020/02/22,07:30,0.12,ND,21
2020/02/22,07:40,0.12,ND,23
2020/02/22,07:50,0.12,ND,24
2020/02/22,08:00,0.12,ND,23
2020/02/22,08:10,0.11,ND,23
2020/02/22,08:20,0.12,ND,22
2020/02/22,08:30,0.13,ND,23
2020/02/22,08:40,0.13,ND,21
2020/02/22,08:50,0.16,ND,20
2020/02/22,09:00,0.21,ND,23
2020/02/22,09:10,0.21,ND,23
2020/02/22,09:20,0.21,ND,24
2020/02/22,09:30,0.20,ND,23
2020/02/22,09:40,0.14,ND,23
2020/02/22,09:50,0.12,ND,21
2020/02/22,10:00,0.11,ND,20
2020/02/22,10:10,0.10,ND,20
2020/02/22,10:20,0.096,ND,19
2020/02/22,10:30,0.085,ND,20
2020/02/22,10:40,0.13,ND,20
2020/02/22,10:50,0.080,ND,22
2020/02/22,11:00,0.077,ND,23
2020/02/22,11:10,0.067,ND,22
2020/02/22,11:20,0.056,ND,23
2020/02/22,11:30,0.053,ND,22
2020/02/22,11:40,0.055,ND,23
2020/02/22,11:50,0.10,ND,22
2020/02/22,12:00,0.096,ND,20
2020/02/22,12:10,0.11,ND,18
2020/02/22,12:20,0.072,ND,18
2020/02/22,12:30,0.065,ND,21
2020/02/22,12:40,0.050,ND,23
2020/02/22,12:50,0.061,ND,22
2020/02/22,13:00,0.070,ND,24
2020/02/22,13:10,0.082,ND,28
2020/02/22,13:20,0.072,ND,26
2020/02/22,13:30,0.065,ND,22
2020/02/22,13:40,0.072,ND,18
2020/02/22,13:50,0.068,ND,18
2020/02/22,14:00,0.068,ND,18
2020/02/22,14:10,0.054,ND,18
2020/02/22,14:20,0.067,ND,20
2020/02/22,14:30,0.071,ND,25
2020/02/22,14:40,0.051,ND,28
2020/02/22,14:50,ND,ND,28
2020/02/22,15:00,ND,ND,27
2020/02/22,15:10,ND,ND,26
2020/02/22,15:20,ND,ND,24
2020/02/22,15:30,ND,ND,22
2020/02/22,15:40,0.065,ND,21
2020/02/22,15:50,0.065,ND,22
2020/02/22,16:00,0.085,ND,23
2020/02/22,16:10,0.067,ND,22
2020/02/22,16:20,0.059,ND,20
2020/02/22,16:30,0.079,ND,19
2020/02/22,16:40,0.070,ND,18
2020/02/22,16:50,0.069,ND,17
2020/02/22,17:00,0.066,ND,16
2020/02/22,17:10,ND,ND,20
2020/02/22,17:20,ND,ND,23
2020/02/22,17:30,ND,ND,23
2020/02/22,17:40,0.048,ND,23
2020/02/22,17:50,0.049,ND,22
2020/02/22,18:00,0.053,ND,24
2020/02/22,18:10,0.052,ND,24
2020/02/22,18:20,0.065,ND,24
2020/02/22,18:30,0.059,ND,23
2020/02/22,18:40,ND,ND,24
2020/02/22,18:50,ND,ND,25
2020/02/22,19:00,ND,ND,23
2020/02/22,19:10,ND,ND,22
2020/02/22,19:20,ND,ND,20
2020/02/22,19:30,0.073,ND,22
2020/02/22,19:40,0.081,ND,24
2020/02/22,19:50,0.10,ND,22
2020/02/22,20:00,0.11,ND,23
2020/02/22,20:10,0.073,ND,20
2020/02/22,20:20,0.071,ND,22
2020/02/22,20:30,0.082,ND,23
2020/02/22,20:40,0.076,ND,23
2020/02/22,20:50,0.060,ND,27
2020/02/22,21:00,0.060,ND,28
2020/02/22,21:10,0.085,ND,29
2020/02/22,21:20,0.089,ND,27
2020/02/22,21:30,0.095,ND,27
2020/02/22,21:40,0.10,ND,26
2020/02/22,21:50,0.12,ND,22
2020/02/22,22:00,0.11,ND,24
2020/02/22,22:10,0.12,ND,26
2020/02/22,22:20,0.094,ND,27
2020/02/22,22:30,0.14,ND,28
2020/02/22,22:40,0.15,ND,30
2020/02/22,22:50,0.16,ND,33
2020/02/22,23:00,0.18,ND,29
2020/02/22,23:10,0.17,ND,28
2020/02/22,23:20,0.13,ND,28
2020/02/22,23:30,0.14,ND,28
2020/02/22,23:40,0.17,ND,28
2020/02/22,23:50,0.18,ND,28
